Torna al catalogo

MUBLCOM

AttivoComunicazioniPO
NORAD 25736·PAYLOAD·🇺🇸 United States

Lanciato May 18, 1999 da Vandenberg Space Force Base

Loading…

Prossimi Passaggi (prossime 24 ore)

TLE

AggiornatoSource: Space-Track

Epoca: Sep 14, 2026, 01:07 UTC

1 25736U 99026B   26257.04701464  .00000801  00000-0  18573-3 0  9993
2 25736  97.6743 110.0150 0003918 333.4157  26.6842 14.57358710442780

Traccia MUBLCOM in tempo reale con AllMySat

Download on the App Store